When you browse on this site, cookies collect data to enhance your experience and personalize the content and advertising you see.
Visit our Privacy Policy to learn more. By continuing to use the site, you agree to this use of cookies and data.
  • In Hungary
  • List of Countries
  • For 7 days
  • Water Temperature
  • Weather Map
  • News
  • Weather Widgets
  • user-avatar
    Login

    Hourly Weather Steyr

    Today, 6 April, Monday

    Time Temperature Precipitation Wind Pressure Humidity
    00:00 +5°C° 0 mm 3 mps 738 mmHg 68%
    01:00 +4°C° 0 mm 3 mps 738 mmHg 70%
    02:00 +4°C° 0 mm 3 mps 738 mmHg 72%
    03:00 +4°C° 0 mm 3 mps 738 mmHg 75%
    04:00 +4°C° 0 mm 2 mps 738 mmHg 78%
    05:00 +5°C° 0 mm 2 mps 738 mmHg 77%
    06:00 +6°C° 0 mm 2 mps 739 mmHg 76%
    07:00 +7°C° 0 mm 1 mps 739 mmHg 75%
    08:00 +9°C° 0 mm 2 mps 739 mmHg 67%
    09:00 +12°C° 0 mm 2 mps 739 mmHg 60%
    10:00 +15°C° 0 mm 2 mps 739 mmHg 52%
    11:00 +16°C° 0 mm 2 mps 739 mmHg 49%
    12:00 +18°C° 0 mm 2 mps 739 mmHg 45%
    13:00 +19°C° 0 mm 2 mps 739 mmHg 42%
    14:00 +19°C° 0 mm 2 mps 739 mmHg 43%
    15:00 +19°C° 0 mm 2 mps 739 mmHg 44%
    16:00 +19°C° 0 mm 2 mps 739 mmHg 44%
    17:00 +17°C° 0 mm 2 mps 739 mmHg 52%
    18:00 +15°C° 0 mm 2 mps 739 mmHg 60%
    19:00 +12°C° 0 mm 2 mps 739 mmHg 67%
    20:00 +10°C° 0 mm 2 mps 740 mmHg 68%
    21:00 +9°C° 0 mm 2 mps 741 mmHg 69%
    22:00 +8°C° 0 mm 2 mps 741 mmHg 70%
    23:00 +7°C° 0 mm 2 mps 742 mmHg 71%

    Tomorrow, 7 April, Tuesday

    Time Temperature Precipitation Wind Pressure Humidity
    00:00 +7°C° 0 mm 2 mps 742 mmHg 73%
    01:00 +6°C° 0 mm 2 mps 742 mmHg 74%
    02:00 +6°C° 0 mm 2 mps 742 mmHg 75%
    03:00 +6°C° 0 mm 1 mps 742 mmHg 75%
    04:00 +6°C° 0 mm 1 mps 742 mmHg 76%
    05:00 +7°C° 0 mm 1 mps 742 mmHg 73%
    06:00 +7°C° 0 mm 1 mps 742 mmHg 71%
    07:00 +8°C° 0 mm 1 mps 743 mmHg 68%
    08:00 +11°C° 0 mm 1 mps 742 mmHg 61%
    09:00 +13°C° 0 mm 1 mps 742 mmHg 54%
    10:00 +15°C° 0 mm 1 mps 742 mmHg 47%
    11:00 +17°C° 0 mm 2 mps 742 mmHg 44%
    12:00 +18°C° 0 mm 2 mps 742 mmHg 41%
    13:00 +19°C° 0 mm 3 mps 742 mmHg 39%
    14:00 +19°C° 0 mm 3 mps 741 mmHg 38%
    15:00 +19°C° 0 mm 3 mps 741 mmHg 38%
    16:00 +19°C° 0 mm 3 mps 741 mmHg 37%
    17:00 +17°C° 0 mm 3 mps 741 mmHg 42%
    18:00 +13°C° 0 mm 3 mps 741 mmHg 47%
    19:00 +11°C° 0 mm 3 mps 741 mmHg 52%
    20:00 +10°C° 0 mm 3 mps 741 mmHg 54%
    21:00 +8°C° 0 mm 3 mps 741 mmHg 55%
    22:00 +7°C° 0 mm 3 mps 742 mmHg 56%
    23:00 +6°C° 0 mm 2 mps 742 mmHg 57%

    Day after tomorrow, 8 April, Wednesday

    Time Temperature Precipitation Wind Pressure Humidity
    00:00 +6°C° 0 mm 2 mps 741 mmHg 58%
    01:00 +5°C° 0 mm 2 mps 741 mmHg 60%
    02:00 +4°C° 0 mm 2 mps 741 mmHg 60%
    03:00 +4°C° 0 mm 2 mps 741 mmHg 60%
    04:00 +3°C° 0 mm 2 mps 741 mmHg 60%
    05:00 +5°C° 0 mm 1 mps 741 mmHg 58%
    06:00 +6°C° 0 mm 1 mps 741 mmHg 56%
    07:00 +7°C° 0 mm 1 mps 740 mmHg 54%
    08:00 +9°C° 0 mm 1 mps 740 mmHg 48%
    09:00 +12°C° 0 mm 1 mps 740 mmHg 43%
    10:00 +15°C° 0 mm 1 mps 739 mmHg 38%
    11:00 +16°C° 0 mm 1 mps 739 mmHg 37%
    12:00 +19°C° 0 mm 1 mps 739 mmHg 35%
    13:00 +20°C° 0 mm 1 mps 738 mmHg 34%
    14:00 +20°C° 0 mm 1 mps 738 mmHg 35%
    15:00 +20°C° 0 mm 1 mps 737 mmHg 36%
    16:00 +20°C° 0 mm 1 mps 737 mmHg 37%
    17:00 +18°C° 0 mm 1 mps 737 mmHg 45%
    18:00 +14°C° 0 mm 1 mps 737 mmHg 53%
    19:00 +12°C° 0 mm 1 mps 737 mmHg 62%
    20:00 +11°C° 0 mm 1 mps 737 mmHg 62%
    21:00 +10°C° 0 mm 1 mps 737 mmHg 62%
    22:00 +9°C° 0 mm 1 mps 737 mmHg 62%
    23:00 +9°C° 0 mm 1 mps 737 mmHg 63%

    9 April, Thursday

    Time Temperature Precipitation Wind Pressure Humidity
    00:00 +8°C° 0 mm 1 mps 737 mmHg 63%
    01:00 +7°C° 0 mm 1 mps 737 mmHg 64%
    02:00 +7°C° 0 mm 1 mps 737 mmHg 64%
    03:00 +7°C° 0 mm 1 mps 737 mmHg 65%
    04:00 +7°C° 0 mm 1 mps 736 mmHg 65%
    05:00 +8°C° 0 mm 1 mps 736 mmHg 64%
    06:00 +8°C° 0 mm 0 mps 737 mmHg 63%
    07:00 +9°C° 0 mm 0 mps 737 mmHg 61%
    08:00 +12°C° 0 mm 1 mps 736 mmHg 58%
    09:00 +14°C° 0 mm 1 mps 736 mmHg 55%
    10:00 +16°C° 0 mm 1 mps 736 mmHg 52%
    11:00 +17°C° 0 mm 2 mps 736 mmHg 50%
    12:00 +18°C° 0 mm 2 mps 736 mmHg 48%
    13:00 +20°C° 0 mm 2 mps 736 mmHg 46%
    14:00 +19°C° 0 mm 2 mps 735 mmHg 48%
    15:00 +19°C° 0 mm 2 mps 735 mmHg 49%
    16:00 +19°C° 0 mm 2 mps 735 mmHg 51%
    17:00 +17°C° 0 mm 2 mps 735 mmHg 58%
    18:00 +15°C° 0 mm 2 mps 735 mmHg 66%
    19:00 +13°C° 0 mm 1 mps 735 mmHg 73%
    20:00 +13°C° 0 mm 1 mps 735 mmHg 73%
    21:00 +12°C° 0 mm 1 mps 736 mmHg 74%
    22:00 +11°C° 0 mm 0 mps 736 mmHg 74%
    23:00 +10°C° 0 mm 0 mps 736 mmHg 76%

    10 April, Friday

    Time Temperature Precipitation Wind Pressure Humidity
    00:00 +10°C° 0 mm 0 mps 736 mmHg 78%
    01:00 +9°C° 0 mm 0 mps 736 mmHg 80%
    02:00 +9°C° 0 mm 0 mps 736 mmHg 81%
    03:00 +8°C° 0 mm 0 mps 737 mmHg 82%
    04:00 +8°C° 0 mm 0 mps 737 mmHg 84%
    05:00 +9°C° 0 mm 0 mps 737 mmHg 81%
    06:00 +10°C° 0 mm 0 mps 737 mmHg 79%
    07:00 +10°C° 0 mm 0 mps 737 mmHg 77%
    08:00 +12°C° 0 mm 0 mps 737 mmHg 71%
    09:00 +15°C° 0 mm 1 mps 737 mmHg 64%
    10:00 +18°C° 0 mm 1 mps 737 mmHg 58%
    11:00 +19°C° 0 mm 1 mps 737 mmHg 56%
    12:00 +20°C° 0 mm 1 mps 737 mmHg 53%
    13:00 +19°C° 0 mm 2 mps 737 mmHg 50%
    14:00 +19°C° 0 mm 2 mps 736 mmHg 51%
    15:00 +19°C° 0 mm 2 mps 736 mmHg 51%
    16:00 +19°C° 0 mm 2 mps 736 mmHg 52%
    17:00 +17°C° 0 mm 2 mps 735 mmHg 61%
    18:00 +15°C° 0 mm 2 mps 735 mmHg 70%
    19:00 +13°C° 0 mm 1 mps 735 mmHg 79%
    20:00 +12°C° 0 mm 1 mps 735 mmHg 81%
    21:00 +11°C° 0 mm 1 mps 736 mmHg 83%
    22:00 +11°C° 0 mm 1 mps 736 mmHg 85%
    23:00 +10°C° 0 mm 1 mps 736 mmHg 85%

    11 April, Saturday

    Time Temperature Precipitation Wind Pressure Humidity
    00:00 +10°C° 0 mm 1 mps 736 mmHg 86%
    01:00 +9°C° 0 mm 1 mps 736 mmHg 87%
    02:00 +9°C° 0 mm 1 mps 736 mmHg 88%
    03:00 +9°C° 0 mm 1 mps 735 mmHg 88%
    04:00 +8°C° 0 mm 1 mps 735 mmHg 89%
    05:00 +9°C° 0 mm 1 mps 735 mmHg 85%
    06:00 +9°C° 0 mm 0 mps 735 mmHg 81%
    07:00 +10°C° 0 mm 0 mps 735 mmHg 77%
    08:00 +12°C° 0 mm 0 mps 735 mmHg 71%
    09:00 +16°C° 0 mm 1 mps 735 mmHg 64%
    10:00 +19°C° 0 mm 1 mps 735 mmHg 58%
    11:00 +20°C° 0 mm 1 mps 734 mmHg 55%
    12:00 +21°C° 0 mm 1 mps 734 mmHg 52%
    13:00 +22°C° 0 mm 1 mps 733 mmHg 50%
    14:00 +22°C° 0.1 mm 1 mps 733 mmHg 51%
    15:00 +21°C° 0.1 mm 2 mps 732 mmHg 51%
    16:00 +21°C° 0.1 mm 2 mps 731 mmHg 52%
    17:00 +20°C° 0.1 mm 1 mps 731 mmHg 59%
    18:00 +18°C° 0.1 mm 1 mps 731 mmHg 66%
    19:00 +14°C° 0.1 mm 0 mps 731 mmHg 72%
    20:00 +14°C° 0.1 mm 1 mps 731 mmHg 75%
    21:00 +14°C° 0.1 mm 1 mps 731 mmHg 77%
    22:00 +13°C° 0.1 mm 1 mps 731 mmHg 79%
    23:00 +13°C° 0.2 mm 2 mps 731 mmHg 82%
    Show more